User: anonymous   Login
Location: Davayat
(45.9471°N, 3.1105°E)
Time: 11:42:32
(UTC+00:00)
Language:

Meteor 2-12 Rocket - Orbit

View from above orbital plane
View from above orbital plane
View from above satellite
View from above satellite

Ground track
Ground track

The orbit data is extracted from the following two-line orbital elements,

1 15517U 85013B   21135.82377107  .00000016  00000-0  11544-5 0  9990
2 15517  82.5383  23.8133 0015628 136.9734 223.2651 13.84896835833229
Epoch (UTC): 15 May 2021 19:46:13
Eccentricity: 0.0015628
inclination: 82.5383°
perigee height: 935 km
apogee height: 958 km
right ascension of ascending node: 23.8133°
argument of perigee: 136.9734°
revolutions per day: 13.84896835
mean anomaly at epoch: 223.2651°
orbit number at epoch: 83322

The dashed part of the orbit path shows where the satellite is in the earth's shadow,  

DLR